• In India
  • List of Countries
  • For 7 days
  • Water Temperature
  • Satellite Maps
  • Weather Map
  • Weather Widgets
  • user-avatar
    Login

    Hourly Weather Zawoja

    Today, 23 November, Thursday

    Time Temperature Precipitation Wind Pressure Humidity
    00:00 +1°C° 0 mm 2 mps 704 mmHg 89%
    01:00 +1°C° 0 mm 2 mps 704 mmHg 89%
    02:00 +1°C° 0 mm 2 mps 704 mmHg 88%
    03:00 +1°C° 0 mm 2 mps 704 mmHg 88%
    04:00 +1°C° 0 mm 2 mps 704 mmHg 87%
    05:00 +1°C° 0 mm 2 mps 704 mmHg 87%
    06:00 +1°C° 0 mm 2 mps 704 mmHg 86%
    07:00 +1°C° 0 mm 1 mps 704 mmHg 86%
    08:00 +2°C° 0 mm 2 mps 704 mmHg 83%
    09:00 +4°C° 0 mm 2 mps 705 mmHg 80%
    10:00 +5°C° 0 mm 2 mps 705 mmHg 77%
    11:00 +6°C° 0 mm 2 mps 705 mmHg 76%
    12:00 +7°C° 0 mm 2 mps 705 mmHg 74%
    13:00 +9°C° 0 mm 1 mps 705 mmHg 75%
    14:00 +8°C° 0 mm 1 mps 705 mmHg 79%
    15:00 +5°C° 0 mm 2 mps 705 mmHg 82%
    16:00 +4°C° 0 mm 2 mps 705 mmHg 86%
    17:00 +3°C° 0 mm 2 mps 705 mmHg 86%
    18:00 +3°C° 0 mm 2 mps 705 mmHg 87%
    19:00 +2°C° 0 mm 2 mps 705 mmHg 88%
    20:00 +2°C° 0 mm 2 mps 705 mmHg 88%
    21:00 +2°C° 0 mm 2 mps 705 mmHg 88%
    22:00 +2°C° 0 mm 2 mps 705 mmHg 88%
    23:00 +2°C° 0 mm 2 mps 706 mmHg 89%

    Tomorrow, 24 November, Friday

    Time Temperature Precipitation Wind Pressure Humidity
    00:00 +2°C° 0 mm 2 mps 706 mmHg 90%
    01:00 +2°C° 0 mm 2 mps 706 mmHg 90%
    02:00 +2°C° 0 mm 2 mps 706 mmHg 91%
    03:00 +2°C° 0 mm 2 mps 706 mmHg 91%
    04:00 +2°C° 0 mm 2 mps 706 mmHg 91%
    05:00 +2°C° 0 mm 2 mps 706 mmHg 90%
    06:00 +2°C° 0 mm 2 mps 706 mmHg 89%
    07:00 +2°C° 0 mm 2 mps 706 mmHg 89%
    08:00 +3°C° 0 mm 2 mps 706 mmHg 86%
    09:00 +5°C° 0 mm 2 mps 706 mmHg 83%
    10:00 +6°C° 0 mm 2 mps 707 mmHg 80%
    11:00 +7°C° 0 mm 2 mps 707 mmHg 79%
    12:00 +8°C° 0 mm 2 mps 707 mmHg 77%
    13:00 +9°C° 0 mm 2 mps 707 mmHg 76%
    14:00 +8°C° 0 mm 2 mps 706 mmHg 80%
    15:00 +6°C° 0 mm 2 mps 706 mmHg 84%
    16:00 +5°C° 0 mm 2 mps 706 mmHg 88%
    17:00 +5°C° 0 mm 2 mps 706 mmHg 89%
    18:00 +4°C° 0 mm 2 mps 706 mmHg 89%
    19:00 +4°C° 0 mm 2 mps 706 mmHg 90%
    20:00 +4°C° 0 mm 2 mps 706 mmHg 89%
    21:00 +4°C° 0 mm 2 mps 706 mmHg 88%
    22:00 +3°C° 0 mm 2 mps 706 mmHg 88%
    23:00 +3°C° 0 mm 2 mps 706 mmHg 88%

    Day after tomorrow, 25 November, Saturday

    Time Temperature Precipitation Wind Pressure Humidity
    00:00 +3°C° 0 mm 2 mps 706 mmHg 87%
    01:00 +3°C° 0 mm 2 mps 706 mmHg 87%
    02:00 +3°C° 0 mm 2 mps 705 mmHg 88%
    03:00 +3°C° 0 mm 2 mps 705 mmHg 88%
    04:00 +4°C° 0 mm 1 mps 705 mmHg 89%
    05:00 +3°C° 0 mm 2 mps 704 mmHg 89%
    06:00 +2°C° 0 mm 2 mps 704 mmHg 89%
    07:00 +2°C° 0 mm 2 mps 704 mmHg 89%
    08:00 +4°C° 0 mm 2 mps 703 mmHg 85%
    09:00 +4°C° 0 mm 3 mps 703 mmHg 82%
    10:00 +5°C° 0 mm 3 mps 703 mmHg 78%
    11:00 +7°C° 0 mm 3 mps 702 mmHg 77%
    12:00 +6°C° 0 mm 4 mps 702 mmHg 76%
    13:00 +7°C° 0 mm 4 mps 701 mmHg 74%
    14:00 +6°C° 0 mm 4 mps 701 mmHg 77%
    15:00 +7°C° 0 mm 3 mps 700 mmHg 80%
    16:00 +5°C° 0 mm 3 mps 700 mmHg 83%
    17:00 +5°C° 0.2 mm 3 mps 700 mmHg 84%
    18:00 +5°C° 0.2 mm 3 mps 700 mmHg 85%
    19:00 +5°C° 0.2 mm 3 mps 699 mmHg 86%
    20:00 +5°C° 0.1 mm 3 mps 700 mmHg 87%
    21:00 +5°C° 0.1 mm 3 mps 700 mmHg 87%
    22:00 +5°C° 0.1 mm 3 mps 700 mmHg 88%
    23:00 +4°C° 0.4 mm 3 mps 701 mmHg 89%

    26 November, Sunday

    Time Temperature Precipitation Wind Pressure Humidity
    00:00 +4°C° 0.4 mm 3 mps 701 mmHg 90%
    01:00 +4°C° 0.4 mm 2 mps 701 mmHg 91%
    02:00 +3°C° 0.7 mm 3 mps 702 mmHg 90%
    03:00 +2°C° 0.7 mm 3 mps 702 mmHg 89%
    04:00 +2°C° 0.7 mm 3 mps 702 mmHg 89%
    05:00 +1°C° 0.7 mm 3 mps 703 mmHg 89%
    06:00 +1°C° 0.7 mm 3 mps 703 mmHg 89%
    07:00 +2°C° 0.7 mm 2 mps 704 mmHg 90%
    08:00 +1°C° 0.4 mm 3 mps 704 mmHg 89%
    09:00 +1°C° 0.4 mm 3 mps 705 mmHg 88%
    10:00 +1°C° 0.4 mm 3 mps 705 mmHg 87%
    11:00 +1°C° 0.3 mm 3 mps 705 mmHg 86%
    12:00 +1°C° 0.3 mm 3 mps 706 mmHg 85%
    13:00 +1°C° 0.3 mm 3 mps 706 mmHg 84%
    14:00 0°C° 0.1 mm 3 mps 706 mmHg 84%
    15:00 +1°C° 0.1 mm 2 mps 706 mmHg 85%
    16:00 +1°C° 0.1 mm 2 mps 707 mmHg 86%
    17:00 -1°C° 0 mm 2 mps 707 mmHg 87%
    18:00 -1°C° 0 mm 2 mps 707 mmHg 89%
    19:00 -2°C° 0 mm 2 mps 707 mmHg 90%
    20:00 -2°C° 0 mm 2 mps 708 mmHg 90%
    21:00 -1°C° 0 mm 1 mps 708 mmHg 90%
    22:00 -1°C° 0 mm 1 mps 708 mmHg 91%
    23:00 -2°C° 0 mm 1 mps 708 mmHg 91%

    27 November, Monday

    Time Temperature Precipitation Wind Pressure Humidity
    00:00 -2°C° 0 mm 1 mps 708 mmHg 91%
    01:00 -2°C° 0 mm 1 mps 709 mmHg 91%
    02:00 -2°C° 0 mm 1 mps 709 mmHg 91%
    03:00 -3°C° 0 mm 1 mps 709 mmHg 91%
    04:00 -3°C° 0 mm 1 mps 709 mmHg 91%
    05:00 -3°C° 0 mm 1 mps 709 mmHg 91%
    06:00 -3°C° 0 mm 1 mps 709 mmHg 91%
    07:00 -3°C° 0 mm 1 mps 709 mmHg 90%
    08:00 -2°C° 0 mm 1 mps 709 mmHg 86%
    09:00 -1°C° 0 mm 1 mps 709 mmHg 81%
    10:00 -2°C° 0 mm 2 mps 709 mmHg 77%
    11:00 -1°C° 0 mm 2 mps 709 mmHg 75%
    12:00 -1°C° 0 mm 2 mps 709 mmHg 73%
    13:00 +1°C° 0 mm 2 mps 709 mmHg 71%
    14:00 +1°C° 0 mm 1 mps 709 mmHg 74%
    15:00 0°C° 0 mm 1 mps 708 mmHg 78%
    16:00 -1°C° 0 mm 1 mps 708 mmHg 82%
    17:00 -1°C° 0 mm 1 mps 708 mmHg 83%
    18:00 -2°C° 0 mm 1 mps 708 mmHg 84%
    19:00 -2°C° 0 mm 1 mps 708 mmHg 84%
    20:00 -2°C° 0 mm 1 mps 708 mmHg 85%
    21:00 -3°C° 0 mm 1 mps 708 mmHg 85%
    22:00 -3°C° 0 mm 1 mps 708 mmHg 86%
    23:00 -3°C° 0 mm 1 mps 708 mmHg 85%

    28 November, Tuesday

    Time Temperature Precipitation Wind Pressure Humidity
    00:00 -3°C° 0 mm 1 mps 708 mmHg 85%
    01:00 -3°C° 0 mm 1 mps 707 mmHg 85%
    02:00 -3°C° 0 mm 1 mps 707 mmHg 85%
    03:00 -3°C° 0 mm 1 mps 707 mmHg 84%
    04:00 -4°C° 0 mm 1 mps 707 mmHg 84%
    05:00 -4°C° 0 mm 1 mps 707 mmHg 83%
    06:00 -4°C° 0 mm 1 mps 707 mmHg 82%
    07:00 -4°C° 0 mm 1 mps 706 mmHg 81%
    08:00 -2°C° 0 mm 1 mps 707 mmHg 76%
    09:00 -1°C° 0 mm 1 mps 707 mmHg 71%
    10:00 0°C° 0 mm 1 mps 707 mmHg 67%
    11:00 +1°C° 0 mm 1 mps 706 mmHg 65%
    12:00 +2°C° 0 mm 1 mps 706 mmHg 63%
    13:00 +3°C° 0 mm 1 mps 706 mmHg 61%
    14:00 +1°C° 0 mm 1 mps 705 mmHg 66%
    15:00 0°C° 0 mm 1 mps 705 mmHg 72%
    16:00 -1°C° 0 mm 1 mps 705 mmHg 77%
    17:00 -2°C° 0 mm 1 mps 705 mmHg 78%
    18:00 -4°C° 0 mm 2 mps 704 mmHg 79%
    19:00 -4°C° 0 mm 2 mps 704 mmHg 80%
    20:00 -4°C° 0 mm 2 mps 704 mmHg 79%
    21:00 -4°C° 0 mm 2 mps 704 mmHg 78%
    22:00 -4°C° 0 mm 2 mps 704 mmHg 77%
    23:00 -5°C° 0 mm 2 mps 704 mmHg 76%
    Show more